Flag for U.S.A. Weather past 2 weeks in Sheboygan, Wisconsin, U.S.A.

Now
31 °F

Ice fog.


Feels Like: 31 °F
Forecast: 43 / 54 °F
Wind: No wind

Location: Sheboygan County Memorial Airport

Current Time: Oct 22, 2014 at 11:48:31 PM

Latest Report: Oct 22, 2014 at 11:01 PM


Visibility: 2 mi

Pressure: 30.27 "Hg

Humidity: 96%

Dew point: 30 °F

Location of SheboyganLocation

Historic Weather in Sheboygan — Graph

°F

Sheboygan temperature yesterday

Maximum temperature yesterday: 50 °F (at 12:53 PM)
Minimum temperature yesterday: 33 °F (at 10:53 PM)
Average temperature yesterday: 44 °F

Past Weeks' High & Low Weather Summary

 TemperatureHumidityPressure
High62 °F (Oct 14, 12:53 AM)100% (Oct 13, 7:53 AM)30.40 "Hg (Oct 13, 7:53 AM)
Low28 °F (Oct 22, 4:53 AM)36% (Oct 8, 1:53 PM)29.48 "Hg (Oct 17, 4:53 AM)
Average48 °F81%29.91 "Hg
* Reported Oct 7 10:53 PM — Oct 22 10:02 PM, Sheboygan, Weather by CustomWeather, © 2014

Note: Actual official high and low records may vary slightly from our data, if they occured in-between our weather recording intervals... More about our weather records

Advertising

Sheboygan weather history for previous 24 hours

 ConditionsComfort  
Time TempWeatherWind HumidityBarometerVisibility
10:02 PM
Oct 22
31 °FIce fog.No wind96%30.27 "Hg2 mi
9:53 PM32 °FIce fog.3 mph96%30.29 "Hg4 mi
8:53 PM35 °FClear.No wind88%30.29 "Hg10 mi
7:53 PM39 °FClear.No wind86%30.29 "Hg10 mi
6:53 PM42 °FSunny.3 mph82%30.30 "Hg10 mi
5:53 PM45 °FSunny.6 mph74%30.30 "Hg10 mi
4:53 PM48 °FSunny.8 mph66%30.31 "Hg10 mi
3:53 PM50 °FSunny.8 mph63%30.32 "Hg10 mi
2:53 PM52 °FSunny.9 mph59%30.33 "Hg10 mi
1:53 PM53 °FSunny.8 mph55%30.35 "Hg10 mi
12:53 PM51 °FSunny.5 mph56%30.37 "Hg10 mi
11:53 AM50 °FScattered clouds.3 mph61%30.40 "Hg10 mi
10:53 AM48 °FOvercast.6 mph71%30.40 "Hg10 mi
9:53 AM45 °FOvercast.No wind86%30.40 "Hg10 mi
8:53 AM39 °FOvercast.No wind89%30.40 "Hg10 mi
7:53 AM32 °FOvercast.No wind96%30.39 "Hg10 mi
6:53 AM28 °FClear.5 mph93%30.38 "Hg10 mi
5:53 AM29 °FPassing clouds.3 mph89%30.36 "Hg10 mi
4:53 AM28 °FClear.3 mph96%30.34 "Hg10 mi
3:53 AM29 °FClear.3 mph96%30.34 "Hg10 mi
2:53 AM29 °FClear.No wind96%30.33 "Hg10 mi
1:53 AM32 °FClear.No wind92%30.32 "Hg10 mi
12:53 AM31 °FClear.5 mph92%30.32 "Hg10 mi
11:53 PM
Oct 21
33 °FClear.No wind92%30.30 "Hg10 mi
Weather by CustomWeather, © 2014

See weather overviewHow to use our weather pages